Location: Kott?ru
(16.6209°N, 80.6208°E)
Time: 13:30:07
(UTC+00:00)

Cosmos 1943 - Pass Details

Date: 18 September 2020
Orbit: 833 x 850 km, 71.0° (Epoch: 29 October)

Event Time Altitude Azimuth Distance (km) Brightness Sun altitude
Rises 14:48:03 0° 336° (NNW) 3,391 6.8 -32.0°
Reaches altitude 10° 14:50:31 10° 333° (NNW) 2,459 6.0 -32.6°
Enters shadow 14:54:55 48° 297° (WNW) 1,090 4.0 -33.6°
